This is the latest recevied weather packets stored in our database for station/object M0SDM-10. If no packets are shown the sender has not sent any weather packets the latest 10 day(s).
| Time | Temp. | Humidity | Pressure | Rain* | Wind** | Luminosity | Snow |
|---|---|---|---|---|---|---|---|
| 1777247813 | 13.89° C | 65% | 1014 hPa | - | - | - | - |
| 1777246013 | 14.44° C | 65% | 1014 hPa | - | - | - | - |
| 1777244213 | 14.44° C | 65% | 1014.1 hPa | - | - | - | - |
| 1777242413 | 14.44° C | 64% | 1013.8 hPa | - | - | - | - |
| 1777240612 | 14.44° C | 64% | 1013.6 hPa | - | - | - | - |
| 1777238812 | 14.44° C | 64% | 1013.5 hPa | - | - | - | - |
| 1777237012 | 15° C | 63% | 1013.7 hPa | - | - | - | - |
| 1777235212 | 15° C | 63% | 1013.7 hPa | - | - | - | - |
| 1777233412 | 15° C | 63% | 1013.6 hPa | - | - | - | - |
| 1777231612 | 15° C | 63% | 1013.4 hPa | - | - | - | - |
| 1777229812 | 15.56° C | 61% | 1013.3 hPa | - | - | - | - |
| 1777228012 | 15.56° C | 59% | 1013.2 hPa | - | - | - | - |
| 1777226211 | 15.56° C | 56% | 1013.1 hPa | - | - | - | - |
| 1777224411 | 15.56° C | 57% | 1013.2 hPa | - | - | - | - |
| 1777222611 | 15.56° C | 56% | 1013.4 hPa | - | - | - | - |
| 1777220808 | 15° C | 56% | 1013.4 hPa | - | - | - | - |
| 1777219008 | 15.56° C | 58% | 1013.4 hPa | - | - | - | - |
| 1777217208 | 15° C | 57% | 1013.5 hPa | - | - | - | - |
| 1777215408 | 15° C | 58% | 1013.6 hPa | - | - | - | - |
| 1777213607 | 15° C | 58% | 1013.8 hPa | - | - | - | - |
| 1777211802 | 14.44° C | 60% | 1014.1 hPa | - | - | - | - |
| 1777210002 | 14.44° C | 60% | 1014.3 hPa | - | - | - | - |
| 1777208202 | 14.44° C | 61% | 1014.6 hPa | - | - | - | - |
| 1777206402 | 14.44° C | 61% | 1014.6 hPa | - | - | - | - |
| 1777204602 | 13.89° C | 64% | 1014.8 hPa | - | - | - | - |
* Rain since midnight (hover to see other rain measurements)
** Current wind speed in m/s (hover to see current wind gust speed)